Date,TemperatureHighF,TemperatureAvgF,TemperatureLowF,DewpointHighF,DewpointAvgF,DewpointLowF,HumidityHigh,HumidityAvg,HumidityLow,PressureMaxIn,PressureMinIn,WindSpeedMaxMPH,WindSpeedAvgMPH,GustSpeedMaxMPH,PrecipitationSumIn
2013-1-1,27.8,18.4,7.4,25.8,12.3,-0.1,94,77,64,29.88,29.68,24,6,26,0.00
2013-1-2,17.1,8.3,-5.8,13.1,4.4,-9.1,89,84,76,30.17,29.85,19,3,23,0.00
2013-1-3,18.4,6.7,-6.1,16.7,0.0,-9.8,93,74,43,30.18,29.99,16,3,19,0.00
2013-1-4,27.9,25.0,18.4,23.2,21.3,16.7,95,86,78,29.99,29.76,25,8,29,0.00
2013-1-5,29.0,25.6,19.1,23.8,18.3,14.2,90,74,57,30.21,29.77,26,6,28,0.01
2013-1-6,32.8,26.4,19.7,29.0,23.7,15.4,100,89,76,30.16,29.91,13,3,16,0.00
2013-1-7,31.1,22.4,16.9,28.6,18.0,13.8,94,83,61,30.34,29.94,23,3,23,0.00
2013-1-8,37.0,29.2,22.9,23.0,20.5,16.2,84,70,52,30.35,30.24,20,3,20,0.00
2013-1-9,39.6,32.8,27.1,32.7,24.1,19.2,85,70,52,30.36,29.93,31,3,34,0.00
2013-1-10,37.1,31.7,25.3,29.3,23.7,21.0,85,72,59,30.53,29.99,29,6,30,0.01
2013-1-11,34.2,29.5,23.4,33.7,24.5,19.6,98,82,56,30.52,30.15,14,2,14,0.00
2013-1-12,42.2,37.5,32.6,41.6,36.9,32.1,99,98,93,30.18,30.09,7,0,7,0.23
2013-1-13,54.4,44.9,39.5,48.5,43.2,38.9,100,94,73,30.12,29.91,15,1,17,0.17
2013-1-14,51.0,40.1,28.3,49.8,35.8,22.0,99,85,67,30.22,29.79,23,4,26,0.03
2013-1-15,31.9,26.3,23.8,23.0,21.2,19.7,87,81,68,30.30,30.17,9,1,10,0.00
2013-1-16,28.6,25.8,23.8,27.8,23.8,19.6,97,92,79,30.22,29.78,12,1,13,0.00
2013-1-17,30.8,23.5,11.1,27.2,16.8,-3.9,95,76,50,30.07,29.78,24,5,24,0.00
2013-1-18,15.7,9.0,0.9,5.9,-1.2,-6.1,73,63,47,30.38,30.02,20,3,21,0.01
2013-1-19,36.4,16.4,14.1,23.4,8.5,5.8,86,71,57,30.30,29.98,12,2,12,0.00
2013-1-20,32.6,21.7,13.6,17.0,10.5,2.6,77,62,50,29.86,29.53,30,9,34,0.05
2013-1-21,13.5,13.3,12.8,2.9,2.6,2.1,63,62,61,29.86,29.85,21,8,21,0.00
2013-1-23,-0.5,-5.1,-7.2,-13.9,-14.6,-15.3,69,63,50,30.13,30.11,11,2,11,0.00
2013-1-24,9.1,-1.1,-8.8,-6.5,-11.7,-15.1,89,62,38,30.31,30.11,24,5,28,0.00
2013-1-25,13.1,3.6,-5.3,3.2,-6.6,-10.7,86,64,38,30.36,30.09,15,2,16,0.00
2013-1-26,11.6,5.4,1.5,2.6,-1.7,-8.4,92,73,43,30.28,30.05,20,4,25,0.00
2013-1-27,19.4,10.7,4.2,2.7,0.6,-3.1,87,65,41,30.50,30.27,20,4,22,0.00
2013-1-28,19.0,16.5,12.2,17.3,8.2,-6.6,93,73,34,30.47,30.01,9,1,12,0.00
2013-1-29,29.5,24.5,18.8,29.0,23.3,17.0,100,95,92,30.19,30.02,11,1,11,0.00
2013-1-30,54.4,45.4,29.5,53.2,44.8,28.8,100,98,92,30.08,29.31,21,4,21,0.13
2013-1-31,51.4,49.4,46.4,50.9,48.7,45.3,99,98,94,29.33,28.83,20,4,20,0.01
2013-2-2,18.4,16.3,13.8,13.0,10.4,7.5,90,78,64,30.10,30.04,10,1,12,0.00
2013-2-3,24.3,16.1,9.8,13.2,9.7,5.5,88,76,57,30.05,29.73,8,0,10,0.00
2013-2-4,18.8,14.2,9.9,13.1,6.5,1.3,92,72,50,29.89,29.71,26,6,26,0.00
2013-2-5,25.5,14.9,6.7,15.0,6.4,1.8,84,69,46,30.01,29.88,10,1,10,0.01
2013-2-6,29.8,20.7,12.1,21.2,13.0,0.2,100,73,42,30.27,29.89,18,3,19,0.00
2013-2-7,21.3,13.1,4.1,4.7,1.0,-3.4,72,59,43,30.51,30.26,19,2,19,0.00
2013-2-8,17.9,16.0,14.7,15.5,11.7,2.8,92,84,56,30.45,29.81,23,3,27,0.00
2013-2-9,16.1,8.6,4.5,14.2,4.8,-0.2,100,84,71,30.33,29.81,30,7,30,0.00
2013-2-10,33.4,18.9,7.1,12.0,2.2,-3.4,76,50,28,30.50,30.31,21,3,23,0.04
2013-2-11,37.4,31.3,21.6,36.9,21.7,-5.0,98,74,21,30.31,29.60,16,3,20,0.05
2013-2-12,33.2,30.2,26.7,30.9,26.2,23.3,97,85,77,29.83,29.58,30,7,31,0.00
2013-2-13,30.2,26.8,24.1,23.9,20.8,18.2,92,78,66,29.83,29.73,15,2,16,0.00
2013-2-14,37.0,28.3,22.8,22.4,20.2,17.4,89,72,51,29.96,29.71,12,1,12,0.28
2013-2-15,39.9,33.3,28.3,29.1,26.2,21.3,95,76,59,29.93,29.88,19,3,20,0.22
2013-2-18,22.1,13.8,1.1,1.4,-2.1,-5.6,79,51,30,30.18,29.94,25,6,25,0.00
2013-2-19,33.4,27.3,14.3,32.4,15.6,-3.4,97,64,30,30.18,29.58,17,2,19,0.00
2013-2-20,31.3,21.1,17.3,30.5,18.4,13.4,97,89,81,29.74,29.56,21,5,23,0.00
2013-2-21,22.4,15.2,10.3,17.8,10.1,4.2,93,80,66,30.35,29.74,24,7,27,0.00
2013-2-22,33.5,25.9,17.0,21.2,18.8,15.3,98,75,56,30.43,30.27,14,2,17,0.10
2013-2-23,28.7,27.1,25.1,27.6,25.2,20.4,97,92,74,30.27,29.92,15,1,15,0.00
2013-2-24,33.0,29.2,26.0,31.0,28.1,24.5,97,95,91,29.92,29.75,23,1,23,0.04
2013-2-25,31.7,28.1,25.7,29.0,26.5,24.5,96,93,87,30.23,29.91,15,2,15,0.01
2013-2-26,34.9,30.0,25.6,30.3,27.4,23.8,94,90,81,30.31,30.11,11,1,13,0.07
2013-2-27,32.4,29.4,27.3,31.8,28.5,25.5,98,96,91,30.12,29.62,21,2,21,0.00
2013-2-28,35.3,31.2,26.9,34.5,30.3,26.2,98,96,94,29.62,29.55,10,0,11,0.06
2013-3-1,33.4,28.3,25.2,30.6,26.5,23.6,98,93,77,29.72,29.56,26,4,26,0.01
2013-3-2,27.5,24.6,19.6,26.6,23.1,18.4,100,94,89,29.72,29.67,20,4,20,0.00
2013-3-3,24.0,21.3,18.1,22.4,19.9,16.7,96,94,91,29.69,29.64,19,4,19,0.00
2013-3-4,27.8,21.7,18.0,22.0,19.1,16.6,100,90,76,29.86,29.66,24,6,24,0.00
2013-3-5,35.2,26.6,20.1,28.2,23.3,18.4,95,88,74,30.09,29.86,17,3,21,0.07
2013-3-6,30.4,28.9,26.4,28.7,26.6,22.2,97,91,82,30.15,30.05,22,5,22,0.00
2013-3-7,32.8,27.5,25.3,27.0,24.1,21.2,95,87,76,30.13,30.07,17,3,22,0.01
2013-3-8,33.6,28.5,24.4,30.0,24.9,21.1,95,87,60,30.27,30.04,21,6,23,0.00
2013-3-9,49.1,37.4,25.8,26.9,21.4,9.7,83,53,31,30.32,30.23,18,3,18,0.60
2013-3-10,53.2,39.4,27.4,28.8,23.3,17.0,76,54,32,30.34,30.20,10,1,12,0.09
2013-3-11,46.4,39.2,31.6,35.2,30.8,24.6,87,73,43,30.22,30.04,17,2,23,0.00
2013-3-12,46.8,42.7,33.1,46.5,41.8,32.6,99,96,82,30.05,29.68,19,4,20,0.73
2013-3-13,38.8,32.7,28.6,32.6,26.1,19.8,98,78,53,29.76,29.71,16,4,17,0.00
2013-3-14,28.7,19.5,12.8,24.1,14.1,6.5,91,79,64,29.84,29.70,20,5,21,0.00
2013-3-15,29.5,20.5,9.0,25.5,13.8,3.4,94,77,40,29.87,29.63,21,5,21,0.00
2013-3-16,28.6,21.3,14.7,21.4,12.5,5.5,92,70,42,29.88,29.72,16,2,19,0.02
2013-3-17,26.3,18.3,11.5,15.8,7.6,0.8,91,64,36,30.31,29.88,20,4,22,0.00
2013-3-18,31.1,20.8,9.1,20.4,2.7,-2.8,92,48,28,30.44,30.17,13,1,14,0.00
2013-3-19,28.1,24.5,22.0,26.9,23.1,20.2,100,94,92,30.17,29.71,14,2,14,0.00
2013-3-20,27.4,22.0,16.9,23.6,18.8,14.6,100,88,76,29.77,29.67,20,4,24,0.02
2013-3-21,33.0,23.2,15.7,17.7,14.3,10.0,90,71,41,29.77,29.62,14,2,14,0.33
2013-3-22,30.7,22.6,14.9,25.1,17.2,10.4,95,80,58,29.75,29.64,16,3,16,0.02
2013-3-23,33.8,26.2,20.6,21.0,19.6,16.0,94,77,54,29.81,29.67,27,6,27,0.01
2013-3-24,35.6,28.7,24.8,23.5,21.6,20.0,92,75,58,29.86,29.77,19,3,19,0.00
2013-3-25,37.1,31.0,24.9,27.3,23.6,19.8,87,74,59,29.79,29.54,13,2,17,0.01
2013-3-26,38.9,32.0,25.7,28.2,23.4,16.3,96,72,43,29.81,29.59,17,3,17,0.02
2013-3-27,42.7,35.1,28.6,29.0,24.6,19.6,85,66,50,29.90,29.78,19,3,21,0.00
2013-3-28,41.2,35.0,30.3,32.2,30.2,27.8,97,83,67,30.05,29.89,14,2,17,0.01
2013-3-29,43.4,36.2,31.2,34.1,31.2,28.4,93,83,62,30.07,30.00,13,2,13,0.00
2013-3-30,47.8,38.0,30.2,28.8,22.2,12.8,88,57,26,30.09,30.03,14,2,15,0.00
2013-3-31,50.5,39.9,31.7,34.4,23.2,15.7,96,54,32,30.09,29.70,17,2,19,0.13
2013-4-1,44.9,33.2,24.3,39.8,29.1,12.2,98,86,50,29.75,29.51,29,4,29,0.48
2013-4-2,28.5,22.8,18.5,20.3,12.9,8.3,87,66,50,29.90,29.74,25,8,27,0.00
2013-4-3,34.9,25.7,19.1,16.6,11.7,5.3,78,57,31,30.17,29.89,29,8,29,0.00
2013-4-4,45.6,32.9,19.0,21.2,16.2,5.6,82,53,28,30.28,29.97,16,4,16,0.00
2013-4-5,45.9,36.8,26.0,29.4,22.0,17.0,94,57,36,29.97,29.69,24,4,25,0.00
2013-4-6,37.8,27.8,18.4,20.7,10.0,4.0,86,51,27,30.32,29.89,22,4,23,0.00
2013-4-7,51.3,39.6,29.8,37.4,21.6,6.7,80,50,33,30.30,29.91,20,4,25,0.00
2013-4-8,56.9,45.4,37.1,37.7,32.5,27.4,86,63,33,30.08,29.92,14,3,15,0.00
2013-4-9,55.6,47.4,41.7,44.8,39.8,31.1,96,76,53,30.01,29.83,22,3,23,0.16
2013-4-10,50.4,44.2,39.7,46.3,42.3,38.7,98,93,81,29.98,29.84,11,1,12,0.78
2013-4-11,39.7,32.6,28.2,38.7,30.5,23.5,98,92,74,30.15,29.85,12,1,12,0.05
2013-4-12,30.9,28.5,26.0,28.5,26.7,21.1,97,93,67,30.16,29.84,15,2,15,0.00
2013-4-13,44.9,34.9,28.7,37.1,32.4,28.0,98,91,67,29.93,29.82,12,1,13,0.75
2013-4-14,39.8,34.9,32.0,33.1,29.6,25.2,98,82,60,30.23,29.91,18,3,18,0.17
2013-4-15,55.3,42.7,30.7,34.3,29.9,24.8,85,62,42,30.36,30.22,11,1,13,0.00
2013-4-16,56.0,47.6,40.0,50.4,41.2,31.6,98,79,64,30.30,29.99,22,4,25,0.15
2013-4-17,52.9,44.6,36.9,45.6,31.6,24.5,96,63,36,30.34,30.02,23,4,24,0.00
2013-4-18,56.8,46.2,37.1,44.6,31.5,24.4,86,57,44,30.38,30.05,20,3,24,0.00
2013-4-19,64.6,57.6,45.6,58.8,53.5,44.5,96,87,70,30.05,29.50,30,6,30,0.28
2013-4-20,45.6,38.1,29.2,44.5,30.1,18.3,97,74,47,30.21,29.58,24,7,26,0.14
2013-4-21,43.3,33.4,24.6,22.1,15.8,9.3,77,51,28,30.67,30.21,20,4,23,0.00
2013-4-22,50.6,38.8,30.7,27.9,19.5,13.2,86,47,31,30.73,30.54,17,2,17,0.00
2013-4-23,36.8,32.7,28.8,35.9,30.4,25.3,98,91,86,30.54,30.18,14,2,14,0.00
2013-4-24,72.7,53.3,35.6,48.2,39.5,25.0,99,67,21,30.18,29.69,16,2,18,0.00
2013-4-25,56.9,43.8,35.7,50.3,30.0,19.2,91,61,32,30.26,29.68,23,5,24,0.03
2013-4-26,53.0,45.4,37.1,34.0,27.0,21.5,69,49,37,30.41,30.26,11,2,13,0.00
2013-4-27,59.2,48.6,38.2,35.1,28.4,19.5,78,49,23,30.40,30.28,13,1,14,0.00
2013-4-28,67.7,55.2,43.4,37.3,31.0,25.4,62,41,27,30.29,30.12,15,1,15,0.00
2013-4-29,61.8,52.1,45.1,41.8,36.2,30.1,64,55,43,30.20,30.13,16,2,17,0.00
2013-4-30,68.6,56.4,46.7,41.8,32.3,17.6,57,40,29,30.28,30.19,12,1,13,0.00
2013-5-1,72.3,59.8,46.4,36.7,28.6,22.5,50,33,16,30.41,30.28,14,1,14,0.00
2013-5-2,75.7,61.3,47.2,42.0,36.2,27.0,61,41,25,30.39,30.26,15,2,16,0.00
2013-5-3,65.3,51.4,38.0,42.0,35.7,26.0,82,57,35,30.45,30.34,18,2,18,0.00
2013-5-4,69.9,58.1,47.1,43.6,34.7,17.5,78,47,14,30.36,30.19,15,2,18,0.00
2013-5-5,69.9,55.3,40.8,35.1,28.8,23.1,59,38,19,30.24,30.15,13,1,14,0.00
2013-5-6,73.1,59.5,45.6,39.4,30.4,15.4,64,37,14,30.19,30.07,10,1,13,0.00
2013-5-7,77.5,64.2,51.1,50.5,40.5,29.9,83,48,19,30.11,30.02,13,1,13,0.00
2013-5-8,65.9,59.0,54.6,60.9,54.8,48.6,99,86,67,30.13,29.98,15,1,15,0.61
2013-5-9,64.0,56.2,52.5,58.5,53.7,50.3,99,92,72,29.98,29.84,9,0,10,0.09
2013-5-10,71.1,62.2,52.3,56.9,52.1,49.1,94,71,48,29.94,29.81,14,1,14,0.01
2013-5-11,63.3,58.7,52.7,60.3,55.6,51.0,98,90,65,29.82,29.60,14,2,18,0.20
2013-5-12,57.1,48.8,38.4,52.2,39.4,23.2,100,72,37,29.76,29.57,22,3,24,0.00
2013-5-13,43.6,37.8,34.3,31.0,28.5,25.7,81,69,56,30.06,29.74,23,4,23,0.00
2013-5-14,49.9,41.1,33.6,33.2,28.4,26.3,77,61,44,30.08,30.00,15,2,18,0.00
2013-5-15,57.2,46.7,35.9,49.5,36.0,25.6,96,69,36,30.05,29.64,17,2,18,0.12
2013-5-16,70.5,58.9,47.8,48.2,39.2,30.1,87,51,26,29.79,29.62,25,5,30,0.00
2013-5-17,60.6,50.4,40.6,41.8,37.5,32.2,87,64,35,30.21,29.79,21,4,21,0.00
2013-5-18,69.1,57.0,46.5,43.7,37.0,28.6,76,49,26,30.28,30.18,12,1,15,0.00
2013-5-19,64.1,53.2,47.4,52.5,48.2,43.5,97,84,58,30.26,30.12,17,1,17,0.23
2013-5-20,69.0,60.3,51.4,63.0,57.6,50.6,99,91,76,30.12,29.95,10,1,13,0.00
2013-5-21,80.0,64.9,49.4,66.8,58.9,48.6,99,84,51,29.96,29.79,15,2,19,0.71
2013-5-22,71.1,61.5,49.5,66.7,60.1,49.0,100,95,82,29.88,29.78,10,1,11,0.66
2013-5-23,72.9,65.5,59.9,65.8,62.1,58.8,99,89,68,29.81,29.68,14,2,15,0.02
2013-5-24,62.2,48.0,39.0,60.9,47.5,38.7,100,98,95,29.89,29.58,21,4,23,0.89
2013-5-25,39.6,37.4,33.3,39.2,36.7,32.8,99,97,95,29.87,29.82,22,4,22,0.76
2013-5-26,44.0,38.4,33.2,41.0,37.1,32.7,100,95,82,30.10,29.78,21,5,27,0.32
2013-5-27,63.6,50.9,37.2,41.5,36.8,31.3,94,63,30,30.18,30.09,16,2,22,0.00
2013-5-28,68.3,57.3,45.6,48.3,40.5,35.6,73,55,36,30.20,30.10,10,1,10,0.00
2013-5-29,61.5,56.4,52.4,61.4,55.5,47.0,100,97,74,30.10,29.95,9,0,11,0.47
2013-5-30,79.0,69.4,59.3,67.7,62.9,59.0,100,81,58,30.08,29.99,17,2,17,0.00
2013-5-31,84.4,75.1,64.3,68.7,62.7,56.4,89,67,39,30.06,29.90,14,1,14,0.00
2013-6-1,84.2,75.4,67.0,68.0,63.7,60.9,83,68,47,29.92,29.78,14,2,18,0.00
2013-6-2,82.5,69.9,60.4,70.1,64.6,59.0,98,85,57,29.79,29.63,23,1,23,0.54
2013-6-3,66.2,59.9,48.7,60.8,53.7,37.1,97,81,61,29.82,29.73,15,1,16,0.00
2013-6-4,63.5,51.7,42.8,48.4,42.1,36.0,87,71,50,30.09,29.82,15,2,22,0.00
2013-6-5,67.8,56.9,46.0,48.9,42.8,35.3,85,61,39,30.17,30.08,14,1,14,0.00
2013-6-6,66.5,57.2,50.0,52.6,45.4,34.8,96,66,50,30.14,30.04,12,1,13,0.15
2013-6-7,52.2,48.1,46.1,51.1,47.2,44.5,99,97,92,30.04,29.84,11,1,11,1.21
2013-6-8,61.8,55.0,47.5,58.9,53.7,47.0,99,96,85,30.01,29.71,14,2,14,0.26
2013-6-9,70.0,59.9,52.8,59.2,54.5,52.3,99,84,56,30.16,30.00,12,1,12,0.00
2013-6-10,65.2,59.2,54.6,57.9,54.0,43.9,99,84,62,30.17,29.92,9,0,9,0.43
2013-6-11,55.0,53.1,51.5,54.4,52.7,51.2,100,99,97,29.92,29.55,13,1,14,0.98
2013-6-12,62.4,54.1,49.9,56.1,51.9,49.3,99,92,73,29.83,29.55,22,3,23,0.06
2013-6-13,58.5,52.3,48.3,54.3,50.3,47.8,99,93,79,29.82,29.68,8,0,8,0.42
2013-6-14,68.2,59.4,48.4,57.2,52.1,48.1,99,78,55,29.82,29.66,14,2,17,0.01
2013-6-15,69.3,60.1,51.1,53.7,46.1,40.9,77,61,42,29.92,29.81,14,2,16,0.00
2013-6-16,67.5,59.0,53.3,58.1,51.6,43.1,98,78,60,29.91,29.67,15,1,15,0.06
2013-6-17,73.7,61.8,55.2,63.0,57.6,53.6,99,87,58,29.88,29.76,20,1,29,0.31
2013-6-18,59.3,55.1,51.0,57.5,53.6,45.9,98,95,79,29.94,29.84,18,0,19,0.08
2013-6-19,65.5,56.6,46.4,51.2,44.5,38.4,92,66,41,30.16,29.93,11,1,12,0.00
2013-6-20,72.3,61.4,49.6,51.0,45.3,34.6,81,58,28,30.23,30.15,11,1,12,0.00
2013-6-21,77.1,65.8,53.9,57.1,52.1,48.3,92,64,38,30.23,30.16,9,1,9,0.00
2013-6-22,77.5,68.2,60.3,66.3,60.3,50.3,90,76,60,30.18,30.06,13,1,13,0.01
2013-6-23,84.2,71.7,64.5,72.7,66.3,61.6,97,84,61,30.08,29.92,14,1,20,0.44
2013-6-24,81.3,69.4,63.8,72.4,65.9,62.1,98,89,69,29.97,29.88,16,1,16,0.10
2013-6-25,81.5,71.4,62.9,72.4,65.6,61.0,97,83,63,29.93,29.74,14,1,16,0.23
2013-7-24,70.6,63.0,50.2,66.0,58.9,45.3,99,87,66,29.96,29.56,18,2,18,0.00
2013-7-25,68.2,56.9,45.5,58.1,50.8,43.3,93,81,65,30.10,29.95,13,1,13,0.00
2013-7-26,68.2,60.5,56.5,61.0,56.7,54.1,97,87,75,30.08,29.98,12,1,14,0.00
2013-7-27,79.0,66.9,55.9,64.9,58.4,51.8,96,76,46,30.03,29.94,10,0,12,0.00
2013-7-28,72.3,65.0,59.1,66.8,62.4,58.1,99,92,77,29.96,29.91,9,0,9,0.09
2013-7-29,76.0,67.3,60.5,64.7,60.5,51.8,98,80,56,30.04,29.93,13,1,13,0.00
2013-7-30,73.0,63.0,53.6,60.2,54.9,51.1,93,76,55,30.09,30.02,12,1,13,0.00
2013-7-31,76.0,64.8,55.0,61.7,56.6,52.6,96,76,48,30.11,30.00,7,0,8,0.00
2013-8-1,71.5,62.3,58.0,64.0,58.7,54.2,97,89,70,30.01,29.80,12,1,13,0.44
2013-8-2,74.3,64.6,57.7,62.1,58.4,54.4,100,82,53,29.82,29.76,13,1,13,0.00
2013-8-3,72.3,62.1,55.7,60.6,55.5,51.8,97,80,56,29.82,29.75,15,1,16,0.03
2013-8-4,67.3,59.2,52.1,58.5,53.5,49.9,94,82,61,29.90,29.78,16,1,16,0.07
2013-8-5,67.0,56.8,47.4,50.6,46.2,39.0,95,70,42,30.04,29.89,19,2,20,0.00
2013-8-6,74.3,61.6,51.4,57.9,50.2,44.3,80,67,47,30.10,30.04,8,0,9,0.00
2013-8-7,73.8,64.0,56.7,60.9,57.2,53.6,92,79,56,30.12,30.02,13,1,19,0.01
2013-8-8,78.2,68.3,62.3,69.8,64.9,59.8,97,89,72,30.02,29.94,11,1,14,0.00
2013-8-9,74.7,69.0,66.5,71.2,67.1,64.4,98,94,82,29.94,29.72,10,1,13,0.18
2013-8-10,71.9,64.6,55.4,65.6,55.1,48.1,94,73,46,29.99,29.75,17,3,18,0.00
2013-8-11,71.3,60.5,49.6,58.2,51.8,47.4,94,74,50,30.06,29.98,8,0,10,0.00
2013-8-12,73.4,63.8,54.9,61.5,55.4,50.1,88,75,54,30.01,29.88,11,1,11,0.00
2013-8-13,65.9,62.4,59.8,65.0,60.3,57.3,98,93,83,29.89,29.65,5,0,6,1.12
2013-8-14,64.9,54.5,48.8,60.0,51.8,47.3,98,91,70,29.96,29.66,14,2,18,0.06
2013-8-15,67.6,57.0,47.4,55.6,50.3,45.3,95,79,55,30.09,29.96,12,1,15,0.00
2013-8-16,71.4,61.6,52.8,58.8,52.4,47.6,87,73,53,30.18,30.07,9,1,12,0.00
2013-8-17,74.5,64.4,54.6,60.6,54.9,49.3,92,72,50,30.25,30.17,10,1,10,0.00
2013-8-18,71.2,64.1,58.7,61.7,56.5,52.6,88,77,58,30.24,30.05,5,0,8,0.00
2013-8-19,75.0,65.7,57.8,63.9,58.8,53.5,94,79,54,30.06,29.95,10,1,13,0.00
2013-8-20,77.7,68.0,58.3,65.2,59.2,54.3,89,75,52,30.08,29.98,11,1,13,0.00
2013-8-21,80.2,70.1,63.0,66.9,61.5,57.6,90,75,54,30.11,29.99,9,1,10,0.00
2013-8-22,79.7,70.0,61.8,67.5,62.8,58.7,96,80,54,29.99,29.79,14,1,14,0.01
2013-8-23,68.3,61.8,53.9,62.0,55.2,46.8,96,80,56,30.13,29.82,20,2,20,0.00
2013-8-24,75.0,61.0,50.0,56.1,49.8,46.0,88,69,42,30.32,30.13,9,0,9,0.00
2013-8-25,74.3,63.7,53.8,59.0,53.3,44.6,89,70,47,30.33,30.13,9,1,11,0.00
2013-8-26,71.9,63.6,58.1,67.0,61.6,56.3,99,93,82,30.14,29.86,12,1,13,0.09
2013-8-27,79.2,68.8,62.7,69.9,65.3,62.1,99,89,64,29.89,29.83,9,1,9,0.00
2013-8-28,80.0,69.9,61.6,71.1,65.6,60.7,97,87,61,29.92,29.81,13,0,15,0.18
2013-8-29,70.8,63.1,58.5,66.1,61.3,57.8,100,94,79,30.02,29.91,9,0,10,0.01
2013-8-30,79.0,68.2,59.4,69.2,63.6,59.1,99,86,61,29.99,29.77,10,1,10,0.01
2013-8-31,75.0,68.2,63.2,71.8,66.7,62.3,98,95,87,29.78,29.71,7,0,7,0.17
2013-9-1,78.4,69.7,65.3,71.7,67.3,64.7,99,93,75,29.83,29.75,7,0,7,0.01
2013-9-2,75.3,67.9,60.3,71.5,66.6,58.9,100,96,80,29.80,29.65,12,0,13,0.92
2013-9-3,68.8,62.0,56.4,62.9,58.9,54.4,98,90,71,29.79,29.66,10,1,12,0.00
2013-9-4,71.8,62.1,54.8,61.5,55.3,49.6,97,80,55,29.89,29.78,13,2,19,0.00
2013-9-5,60.8,54.8,46.0,56.2,46.9,37.2,98,76,48,30.13,29.82,17,2,26,0.06
2013-9-6,63.5,51.3,41.4,47.5,40.8,36.6,87,69,43,30.24,30.08,9,1,9,0.00
2013-9-7,64.7,56.1,48.8,54.4,47.7,39.0,88,74,54,30.08,29.83,13,0,13,0.00
2013-9-8,58.9,54.0,42.5,55.4,46.7,38.3,98,77,58,30.08,29.75,21,2,26,0.01
2013-9-9,65.5,52.5,40.1,50.2,42.0,34.5,92,70,33,30.20,30.08,12,1,12,0.00
2013-9-10,71.3,62.9,53.8,68.7,61.1,50.0,100,94,86,30.09,29.99,11,0,11,0.15
2013-9-11,85.5,75.3,64.8,74.5,70.6,62.6,100,86,64,30.03,29.88,17,1,17,0.29
2013-9-12,77.2,67.7,61.7,71.3,64.8,61.1,100,91,77,29.88,29.61,18,0,18,0.59
2013-9-13,62.8,56.0,47.8,62.5,55.7,47.5,100,99,98,29.79,29.56,15,1,18,0.34
2013-9-14,48.5,46.5,45.6,48.0,46.3,45.3,100,99,97,29.94,29.78,13,3,18,0.00
2013-10-26,38.8,38.6,38.3,31.5,31.0,30.7,76,74,73,29.83,29.81,7,1,7,0.02
2013-10-27,42.2,38.5,33.3,37.2,31.2,27.4,93,75,59,30.02,29.75,19,3,19,0.00
2013-10-28,46.2,36.7,28.5,36.3,29.4,19.8,88,75,62,30.33,30.01,21,4,24,0.00
2013-10-29,41.7,31.7,24.2,22.6,18.6,14.0,82,60,33,30.43,30.33,8,1,10,0.00
2013-10-30,43.2,35.4,30.5,37.5,29.5,16.1,95,80,51,30.34,30.21,12,0,12,0.01
2013-10-31,56.3,47.1,37.0,55.4,45.3,35.2,98,93,85,30.25,29.69,20,3,22,0.55
2013-11-1,60.9,56.2,46.4,59.2,51.4,40.8,100,85,58,29.69,29.33,29,6,33,1.03
2013-11-2,54.4,45.1,34.2,43.3,39.8,33.4,98,82,63,29.77,29.56,15,2,19,0.08
2013-11-3,34.3,29.1,24.2,33.8,22.0,14.3,98,76,57,30.45,29.77,18,4,21,0.00
2013-11-4,37.3,27.8,21.6,17.1,14.0,9.3,76,57,33,30.69,30.45,13,2,13,0.00
2013-11-5,45.5,35.3,27.2,33.3,24.0,14.0,83,63,53,30.69,30.47,10,1,11,0.00
2013-11-6,56.7,45.8,38.1,45.1,39.7,33.0,92,80,59,30.48,29.93,17,2,19,0.00
2013-11-7,53.1,44.0,30.1,50.2,40.9,24.4,98,89,70,29.93,29.66,19,4,20,0.20
2013-11-8,38.4,30.8,26.4,30.3,24.2,21.1,90,76,62,30.08,29.77,22,4,22,0.00
2013-11-9,36.8,31.2,24.8,29.8,23.6,19.8,92,74,56,30.18,29.95,15,3,16,0.00
2013-11-10,41.8,35.2,29.6,39.0,32.8,28.3,97,91,82,29.96,29.72,21,4,27,0.09
2013-11-11,41.5,35.1,30.4,34.5,27.9,24.0,92,75,52,30.05,29.85,19,5,22,0.00
2013-11-12,36.1,23.7,18.2,33.5,19.8,14.2,96,85,68,30.20,29.85,20,4,23,0.01
2013-11-13,27.5,21.4,15.4,21.5,15.0,11.2,88,77,52,30.31,30.10,21,4,21,0.00
2013-11-14,41.6,33.8,26.0,29.6,23.0,16.2,79,65,42,30.11,30.04,17,4,19,0.01
2013-11-15,52.1,42.5,35.1,19.8,16.1,12.5,46,35,21,30.17,30.08,13,2,14,0.00
2013-11-16,53.9,46.1,40.8,33.5,26.3,16.9,69,46,34,30.27,30.15,11,1,12,0.00
2013-11-17,50.9,44.0,40.6,50.6,41.2,30.7,99,91,59,30.24,29.76,16,2,16,0.14
2013-11-18,54.9,47.3,35.8,54.1,41.5,27.5,99,81,61,29.77,29.46,25,6,25,0.37
2013-11-19,35.8,27.6,21.3,27.9,20.3,13.4,92,74,64,30.32,29.59,24,6,30,0.00
2013-11-20,34.0,24.6,17.9,20.2,15.8,11.2,91,70,52,30.64,30.31,15,2,15,0.00
2013-11-21,41.6,32.3,23.9,30.6,15.5,4.6,87,52,25,30.64,30.35,8,1,9,0.00
2013-11-22,41.3,37.7,33.9,41.0,36.6,30.4,100,96,86,30.35,29.79,18,1,23,0.17
2013-11-23,41.1,27.5,17.3,38.7,22.2,12.3,97,81,62,29.92,29.73,27,6,27,0.07
2013-11-24,17.2,12.5,7.9,14.4,3.5,-2.0,92,68,46,30.22,29.75,35,7,35,0.00
2013-11-25,25.4,16.1,5.6,15.7,5.8,-3.6,76,63,48,30.37,30.21,15,3,20,0.00
2013-11-26,30.3,26.3,22.7,28.4,23.6,11.9,100,90,55,30.29,30.02,14,2,14,0.00
2013-11-27,42.9,34.0,27.2,42.6,33.6,26.0,100,98,95,30.02,29.31,18,3,23,1.62
2013-11-28,27.2,18.0,13.2,25.9,11.8,5.1,95,77,51,30.40,29.44,25,5,25,0.00
2013-11-29,22.0,15.0,11.0,10.5,7.2,5.0,85,71,53,30.74,30.40,11,1,14,0.00
2013-11-30,23.7,17.0,9.1,18.1,7.0,2.8,79,65,45,30.78,30.41,15,1,18,0.00
2013-12-1,35.7,30.6,23.6,30.7,27.3,18.0,95,87,76,30.42,30.02,13,1,13,0.04
2013-12-2,34.4,32.5,30.1,33.9,31.8,28.8,98,97,93,30.02,29.89,4,0,5,0.03
2013-12-3,41.6,34.6,30.3,36.0,31.8,28.3,96,89,73,29.94,29.87,10,1,11,0.03
2013-12-4,37.9,31.3,24.1,32.5,26.5,22.1,93,83,68,30.17,29.93,12,1,18,0.00
2013-12-5,51.3,42.1,32.8,50.8,40.8,28.8,99,95,81,30.17,29.88,16,2,17,0.02
2013-12-6,50.3,36.6,28.0,50.0,33.8,25.7,99,90,67,30.10,29.83,16,2,17,0.06
2013-12-7,28.2,24.8,19.5,27.2,19.5,11.5,100,80,68,30.42,30.04,16,4,18,0.00
2013-12-8,23.7,19.9,16.7,15.6,13.0,11.1,83,74,65,30.55,30.42,13,1,15,0.00
2013-12-9,33.1,25.1,17.9,32.5,23.2,15.2,98,92,82,30.45,29.87,18,2,22,0.00
2013-12-10,30.4,23.7,15.2,27.0,17.8,7.7,92,78,58,29.91,29.74,23,5,23,0.00
2013-12-11,23.4,18.5,14.3,15.4,11.9,8.9,91,76,54,30.12,29.91,21,6,27,0.00
2013-12-12,15.5,10.8,5.4,11.8,2.4,-3.3,92,69,48,30.24,29.99,14,4,21,0.00
2013-12-13,16.1,11.5,-0.5,13.3,6.8,-4.4,92,81,73,30.38,29.92,20,4,20,0.00
2013-12-14,9.4,2.4,-2.8,7.1,-2.3,-6.5,90,81,60,30.59,30.20,9,1,13,0.00
2013-12-15,22.4,17.6,9.0,20.9,15.6,6.4,94,92,88,30.20,29.55,21,4,24,0.00
2013-12-16,19.5,12.7,2.8,16.9,7.0,-2.2,92,78,63,30.16,29.69,19,6,21,0.00
2013-12-17,14.3,6.1,0.1,12.4,2.6,-4.6,92,85,75,30.22,30.04,11,1,11,0.00
2013-12-18,24.6,20.1,14.2,21.8,17.5,12.1,95,89,83,30.04,29.94,12,2,16,0.00
2013-12-19,34.1,28.4,22.1,30.1,23.4,19.2,95,82,68,30.08,29.93,17,4,21,0.03
2013-12-20,45.4,39.5,33.4,42.6,35.1,29.8,96,84,69,30.08,29.85,23,4,24,0.42
2013-12-21,52.4,48.5,43.7,50.4,46.8,41.3,99,94,85,29.89,29.79,22,3,24,0.32
2013-12-22,59.5,53.7,42.1,55.7,51.2,41.8,100,92,80,29.87,29.63,21,3,21,0.08
2013-12-23,53.0,40.6,26.9,51.0,39.7,23.3,100,97,86,30.07,29.85,18,2,21,0.19
2013-12-24,26.9,19.8,10.4,23.4,15.1,6.8,92,82,68,30.20,30.04,17,4,22,0.00
2013-12-25,16.6,9.1,1.2,8.1,3.1,-1.9,87,77,61,30.50,30.20,16,2,18,0.00
2013-12-26,24.2,20.4,13.1,22.6,17.3,6.2,98,88,71,30.45,30.10,15,3,17,0.00
2013-12-27,25.9,23.1,18.7,22.4,19.4,16.3,98,86,71,30.22,30.16,15,4,19,0.00
2013-12-28,36.2,31.4,22.5,32.8,27.1,19.2,96,84,72,30.17,29.98,18,4,22,0.03
2013-12-29,41.1,36.4,32.2,34.0,30.4,27.6,97,79,61,30.01,29.56,9,0,10,0.11
2013-12-30,19.9,10.0,5.0,16.3,6.4,1.4,87,85,83,30.11,29.93,0,0,4,0.01
2013-12-31,15.3,8.5,1.2,13.1,5.2,-2.4,95,86,81,30.16,30.01,13,1,14,0.00
2014-1-1,13.2,9.4,4.2,9.3,5.8,1.4,99,85,77,30.37,30.15,13,1,13,0.00
2014-1-2,8.0,4.5,0.5,5.1,1.5,-2.9,98,87,85,30.36,29.88,13,1,13,0.00